| time (UTC) | temp F | wind direction | speed knots | gust knots | rain 1hr in | rain 24hr in | rain mn in | humidity % | barometer mb |
| 20260506034031 | 67 | 79 | 0.0 | 1.7 | 0.00 | 0.00 | 0.00 | 69 | 1031.2 |
| 20260506033026 | 69 | 70 | 0.9 | 1.7 | 0.00 | 0.00 | 0.00 | 66 | 1031.1 |
| 20260506032023 | 72 | 240 | 1.7 | 3.5 | 0.00 | 0.00 | 0.00 | 61 | 1031.3 |
| 20260506031020 | 72 | 197 | 1.7 | 2.6 | 0.00 | 0.00 | 0.00 | 63 | 1031.3 |
| 20260506030116 | 71 | 326 | 0.9 | 2.6 | 0.00 | 0.00 | 0.00 | 63 | 1031.3 |
| 20260506025113 | 71 | 65 | 3.5 | 4.3 | 0.00 | 0.00 | 0.00 | 60 | 1031.3 |
| 20260506024109 | 71 | 230 | 4.3 | 7.0 | 0.00 | 0.00 | 0.00 | 61 | 1031.3 |
| 20260506023106 | 70 | 269 | 3.5 | 4.3 | 0.00 | 0.00 | 0.00 | 65 | 1031.4 |
| 20260506022101 | 69 | 241 | 1.7 | 4.3 | 0.00 | 0.00 | 0.00 | 64 | 1031.4 |
| 20260506021057 | 69 | 271 | 0.0 | 2.6 | 0.00 | 0.00 | 0.00 | 62 | 1031.4 |
| 20260506020054 | 70 | 238 | 3.5 | 4.3 | 0.00 | 0.00 | 0.00 | 56 | 1031.4 |
| 20260506015050 | 71 | 241 | 1.7 | 2.6 | 0.00 | 0.00 | 0.00 | 58 | 1031.5 |
| 20260506014046 | 71 | 243 | 3.5 | 7.0 | 0.00 | 0.00 | 0.00 | 60 | 1031.5 |
| 20260506013043 | 70 | 263 | 3.5 | 7.0 | 0.00 | 0.00 | 0.00 | 60 | 1031.7 |
| 20260506012040 | 70 | 248 | 4.3 | 7.0 | 0.00 | 0.00 | 0.00 | 60 | 1031.7 |
| 20260506011036 | 70 | 238 | 4.3 | 7.8 | 0.00 | 0.00 | 0.00 | 61 | 1031.8 |
| 20260506010033 | 72 | 49 | 5.2 | 13.0 | 0.00 | 0.00 | 0.00 | 65 | 1031.9 |
| 20260506005051 | 70 | 52 | 0.9 | 1.7 | 0.00 | 0.00 | 0.00 | 70 | 1031.9 |
| 20260506004151 | 68 | 128 | 0.9 | 3.5 | 0.00 | 0.00 | 0.00 | 72 | 1031.9 |
| 20260506003104 | 66 | 203 | 1.7 | 2.6 | 0.00 | 0.00 | 0.00 | 73 | 1032.0 |
| 20260506002122 | 66 | 168 | 2.6 | 4.3 | 0.00 | 0.00 | 0.00 | 73 | 1032.1 |
| 20260506001115 | 66 | 106 | 1.7 | 2.6 | 0.00 | 0.00 | 0.00 | 72 | 1032.2 |
| 20260506000112 | 67 | 135 | 1.7 | 3.5 | 0.00 | 0.00 | 0.00 | 70 | 1032.3 |
| 20260505235108 | 70 | 57 | 2.6 | 4.3 | 0.00 | 0.00 | 0.00 | 69 | 1032.5 |
| 20260505234105 | 68 | 144 | 2.6 | 6.1 | 0.00 | 0.00 | 0.00 | 70 | 1032.5 |
| 20260505233101 | 68 | 187 | 2.6 | 5.2 | 0.00 | 0.00 | 0.00 | 70 | 1032.6 |
| 20260505232058 | 69 | 119 | 3.5 | 5.2 | 0.00 | 0.00 | 0.00 | 66 | 1032.5 |
| 20260505231054 | 70 | 138 | 2.6 | 5.2 | 0.00 | 0.00 | 0.00 | 70 | 1032.7 |
| 20260505230050 | 69 | 140 | 2.6 | 3.5 | 0.00 | 0.00 | 0.00 | 72 | 1032.8 |
| 20260505225047 | 67 | 135 | 1.7 | 3.5 | 0.00 | 0.00 | 0.00 | 74 | 1032.9 |
| 20260505224104 | 66 | 142 | 2.6 | 3.5 | 0.00 | 0.00 | 0.00 | 73 | 1033.0 |
| 20260505223101 | 67 | 144 | 2.6 | 4.3 | 0.00 | 0.00 | 0.00 | 73 | 1033.0 |
| 20260505222036 | 66 | 142 | 2.6 | 4.3 | 0.00 | 0.00 | 0.00 | 74 | 1033.0 |
| 20260505221032 | 64 | 150 | 1.7 | 2.6 | 0.00 | 0.00 | 0.00 | 82 | 1033.2 |
| 20260505220029 | 61 | 123 | 0.9 | 1.7 | 0.00 | 0.00 | 0.00 | 85 | 1033.2 |
| 20260505215026 | 61 | 135 | 0.9 | 2.6 | 0.00 | 0.00 | 0.00 | 87 | 1033.3 |
| 20260505214043 | 60 | 58 | 0.9 | 2.6 | 0.00 | 0.00 | 0.00 | 89 | 1033.3 |
| 20260505213019 | 59 | 50 | 0.9 | 1.7 | 0.00 | 0.00 | 0.00 | 90 | 1033.3 |
| 20260505212116 | 58 | 111 | 0.9 | 2.6 | 0.00 | 0.00 | 0.00 | 92 | 1033.3 |
| 20260505211112 | 59 | 248 | 0.9 | 1.7 | 0.00 | 0.00 | 0.00 | 97 | 1033.3 |
| 20260505210108 | 59 | 248 | 0.9 | 1.7 | 0.00 | 0.00 | 0.00 | 99 | 1033.2 |
| 20260505205105 | 59 | 158 | 0.0 | 1.7 | 0.00 | 0.00 | 0.00 | 99 | 1033.1 |
| 20260505204102 | 58 | 158 | 0.0 | 1.7 | 0.00 | 0.00 | 0.00 | 99 | 1033.1 |
| 20260505203222 | 56 | 0.0 | 0.0 | 0.00 | 0.00 | 0.00 | 99 | 1032.9 | |
| 20260505202115 | 55 | 0.0 | 0.0 | 0.00 | 0.00 | 0.00 | 99 | 1032.8 | |
| 20260505201051 | 55 | 0.0 | 0.9 | 0.00 | 0.00 | 0.00 | 99 | 1032.7 | |
| 20260505200047 | 54 | 0.0 | 0.0 | 0.00 | 0.00 | 0.00 | 99 | 1032.5 | |
| 20260505195043 | 54 | 0.0 | 0.9 | 0.00 | 0.00 | 0.00 | 99 | 1032.5 | |
| 20260505194041 | 53 | 0.0 | 0.9 | 0.00 | 0.00 | 0.00 | 99 | 1032.4 | |
| 20260505193036 | 53 | 0.0 | 0.0 | 0.00 | 0.00 | 0.00 | 99 | 1032.3 | |
| 20260505192033 | 53 | 0.0 | 0.0 | 0.00 | 0.00 | 0.00 | 99 | 1032.2 | |
| 20260505191029 | 53 | 0.0 | 0.0 | 0.00 | 0.00 | 0.00 | 99 | 1032.2 | |
| 20260505190026 | 53 | 0.0 | 0.0 | 0.00 | 0.00 | 0.00 | 99 | 1032.2 | |
| 20260505185043 | 53 | 0.0 | 0.0 | 0.00 | 0.00 | 0.00 | 99 | 1032.2 | |
| 20260505184041 | 54 | 0.0 | 0.0 | 0.00 | 0.00 | 0.00 | 99 | 1032.1 | |
| 20260505183116 | 54 | 203 | 0.0 | 1.7 | 0.00 | 0.00 | 0.00 | 99 | 1031.9 |
| 20260505182133 | 54 | 0.0 | 0.0 | 0.00 | 0.00 | 0.00 | 99 | 1032.0 | |
| 20260505181109 | 54 | 0.0 | 0.0 | 0.00 | 0.00 | 0.00 | 99 | 1032.0 | |
| 20260505180105 | 54 | 0.0 | 0.0 | 0.00 | 0.00 | 0.00 | 99 | 1032.0 | |
| 20260505175102 | 54 | 0.0 | 0.0 | 0.00 | 0.00 | 0.00 | 99 | 1032.1 | |
| 20260505174058 | 53 | 0.0 | 0.0 | 0.00 | 0.00 | 0.00 | 99 | 1032.1 | |
| 20260505173136 | 54 | 0.0 | 0.0 | 0.00 | 0.00 | 0.00 | 99 | 1032.1 | |
| 20260505172051 | 54 | 0.0 | 0.0 | 0.00 | 0.00 | 0.00 | 99 | 1032.2 | |
| 20260505171048 | 54 | 0.0 | 0.0 | 0.00 | 0.00 | 0.00 | 99 | 1032.3 | |
| 20260505170045 | 54 | 0.0 | 0.0 | 0.00 | 0.00 | 0.00 | 99 | 1032.2 | |
| 20260505165041 | 54 | 203 | 0.0 | 1.7 | 0.00 | 0.00 | 0.00 | 99 | 1032.3 |
| 20260505164038 | 54 | 0.0 | 0.0 | 0.00 | 0.00 | 0.00 | 99 | 1032.2 | |
| 20260505163033 | 55 | 135 | 0.0 | 1.7 | 0.00 | 0.00 | 0.00 | 96 | 1032.3 |
| 20260505162031 | 54 | 135 | 0.0 | 1.7 | 0.00 | 0.00 | 0.00 | 98 | 1032.2 |
| 20260505161027 | 54 | 203 | 0.9 | 1.7 | 0.00 | 0.00 | 0.00 | 98 | 1032.2 |
| 20260505153134 | 54 | 0.0 | 0.9 | 0.00 | 0.00 | 0.00 | 97 | 1032.5 | |
| 20260505152109 | 54 | 135 | 0.0 | 1.7 | 0.00 | 0.00 | 0.00 | 97 | 1032.5 |
| 20260505151105 | 54 | 135 | 0.0 | 1.7 | 0.00 | 0.00 | 0.00 | 96 | 1032.5 |
| 20260505125017 | 56 | 90 | 0.9 | 1.7 | 0.00 | 0.00 | 0.00 | 85 | 1033.6 |
| 20260505124113 | 56 | 247 | 1.7 | 2.6 | 0.00 | 0.00 | 0.00 | 85 | 1033.7 |
| 20260505123109 | 56 | 243 | 1.7 | 3.5 | 0.00 | 0.00 | 0.00 | 85 | 1033.9 |
| 20260505122105 | 56 | 248 | 1.7 | 3.5 | 0.00 | 0.00 | 0.00 | 84 | 1033.9 |
| 20260505121123 | 56 | 263 | 0.9 | 1.7 | 0.00 | 0.00 | 0.00 | 84 | 1034.0 |
| 20260505120100 | 57 | 248 | 0.9 | 1.7 | 0.00 | 0.00 | 0.00 | 84 | 1034.0 |
| 20260505115117 | 57 | 259 | 0.9 | 1.7 | 0.00 | 0.00 | 0.00 | 83 | 1034.0 |
| 20260505114051 | 57 | 259 | 0.9 | 1.7 | 0.00 | 0.00 | 0.00 | 83 | 1034.0 |
| 20260505113048 | 57 | 255 | 1.7 | 2.6 | 0.00 | 0.00 | 0.00 | 82 | 1034.1 |
| 20260505112046 | 57 | 284 | 0.9 | 2.6 | 0.00 | 0.00 | 0.00 | 82 | 1034.1 |
| 20260505111041 | 57 | 255 | 2.6 | 3.5 | 0.00 | 0.00 | 0.00 | 82 | 1034.1 |
| 20260505102026 | 56 | 45 | 0.9 | 3.5 | 0.00 | 0.00 | 0.00 | 85 | 1034.4 |
| 20260505101022 | 56 | 285 | 0.9 | 1.7 | 0.00 | 0.00 | 0.00 | 85 | 1034.5 |
| 20260505100016 | 56 | 270 | 0.9 | 2.6 | 0.00 | 0.00 | 0.00 | 86 | 1034.5 |
| 20260505095134 | 56 | 248 | 0.9 | 1.7 | 0.00 | 0.00 | 0.00 | 87 | 1034.4 |
| 20260505094130 | 56 | 45 | 0.0 | 1.7 | 0.00 | 0.00 | 0.00 | 88 | 1034.4 |
| 20260505093106 | 56 | 42 | 0.9 | 2.6 | 0.00 | 0.00 | 0.00 | 89 | 1034.4 |
| 20260505092102 | 56 | 233 | 1.7 | 3.5 | 0.00 | 0.00 | 0.00 | 89 | 1034.4 |
| 20260505091139 | 55 | 285 | 2.6 | 3.5 | 0.00 | 0.00 | 0.00 | 88 | 1034.4 |
| 20260505090055 | 55 | 28 | 0.9 | 1.7 | 0.00 | 0.00 | 0.00 | 87 | 1034.4 |
| 20260505085051 | 55 | 45 | 0.0 | 1.7 | 0.00 | 0.00 | 0.00 | 85 | 1034.4 |
| 20260505084108 | 56 | 0.0 | 0.0 | 0.00 | 0.00 | 0.00 | 85 | 1034.3 | |
| 20260505083046 | 56 | 0.0 | 0.0 | 0.00 | 0.00 | 0.00 | 85 | 1034.5 | |
| 20260505082042 | 56 | 0.0 | 0.0 | 0.00 | 0.00 | 0.00 | 85 | 1034.4 | |
| 20260505081038 | 56 | 45 | 0.0 | 1.7 | 0.00 | 0.00 | 0.00 | 84 | 1034.4 |
| 20260505080058 | 56 | 0.0 | 0.9 | 0.00 | 0.00 | 0.00 | 84 | 1034.5 | |
| 20260505075030 | 56 | 0.0 | 0.0 | 0.00 | 0.00 | 0.00 | 83 | 1034.5 | |
| 20260505074027 | 57 | 0.0 | 0.0 | 0.00 | 0.00 | 0.00 | 83 | 1034.6 | |
| 20260505073023 | 57 | 0.0 | 0.9 | 0.00 | 0.00 | 0.00 | 83 | 1034.4 | |
| 20260505072020 | 57 | 0.0 | 0.0 | 0.00 | 0.00 | 0.00 | 82 | 1034.4 | |
| 20260505071016 | 57 | 0.0 | 0.0 | 0.00 | 0.00 | 0.00 | 82 | 1034.4 | |
| 20260505070113 | 57 | 0.0 | 0.9 | 0.00 | 0.00 | 0.00 | 82 | 1034.4 | |
| 20260505065150 | 58 | 45 | 0.9 | 1.7 | 0.00 | 0.00 | 0.00 | 82 | 1034.3 |
| 20260505064106 | 58 | 45 | 0.9 | 2.6 | 0.00 | 0.00 | 0.00 | 83 | 1034.3 |
| 20260505063104 | 58 | 45 | 0.9 | 1.7 | 0.00 | 0.00 | 0.00 | 84 | 1034.3 |
| 20260505062059 | 57 | 231 | 2.6 | 5.2 | 0.00 | 0.00 | 0.00 | 84 | 1034.3 |
| 20260505061055 | 56 | 0.0 | 0.0 | 0.00 | 0.00 | 0.00 | 83 | 1034.3 | |
| 20260505060052 | 56 | 0.0 | 0.0 | 0.00 | 0.00 | 0.00 | 82 | 1034.3 | |
| 20260505055109 | 56 | 0.0 | 0.0 | 0.00 | 0.00 | 0.00 | 80 | 1034.2 | |
| 20260505054127 | 56 | 90 | 0.0 | 1.7 | 0.00 | 0.00 | 0.00 | 80 | 1034.1 |
| 20260505053103 | 57 | 90 | 0.9 | 1.7 | 0.00 | 0.00 | 0.00 | 77 | 1034.2 |
| 20260505052038 | 58 | 0.0 | 0.9 | 0.00 | 0.00 | 0.00 | 76 | 1034.2 | |
| 20260505051034 | 59 | 90 | 0.0 | 0.9 | 0.00 | 0.00 | 0.00 | 76 | 1034.2 |
| 20260505041113 | 61 | 90 | 0.0 | 1.7 | 0.00 | 0.00 | 0.00 | 72 | 1034.6 |
| 20260505040130 | 62 | 90 | 0.0 | 1.7 | 0.00 | 0.00 | 0.00 | 71 | 1034.7 |
| 20260505035105 | 62 | 90 | 0.0 | 1.7 | 0.00 | 0.00 | 0.00 | 71 | 1034.6 |